Theta_e
282 273 269 276 278 278 277 277 276 279 282 280 279 280 282 285 285 282 281 281 283 284 288 290 292 294 294 294 297 298 301 302 303 303 312 321 322 326 327 328 328 330 332 329
273 268 279 281 281 279 276 275 275 279 281 281 280 279 281 283 281 281 280 281 282 283 285 287 289 290 291 292 294 299 301 302 302 306 312 322 322 325 327 328 326 325 326 329
276 278 282 281 279 275 273 274 273 276 280 280 277 273 277 280 282 281 282 282 283 282 283 285 287 289 290 289 291 299 301 302 303 305 311 318 321 320 324 326 325 327 327 328
276 281 281 279 276 278 271 280 279 277 273 266 277 266 274 275 278 279 279 280 281 282 283 285 287 289 290 290 290 296 300 300 304 308 315 315 315 316 321 320 323 327 329 328
274 278 278 274 279 280 276 281 278 276 269 274 268 269 271 275 273 275 277 279 280 281 282 284 288 291 291 291 289 291 297 299 300 311 311 313 312 314 316 318 321 323 325 326
275 281 280 280 282 281 282 276 273 273 268 261 265 271 268 271 273 275 277 278 279 281 282 285 290 291 290 289 291 290 295 299 305 306 308 312 313 312 313 315 321 323 325 324
272 273 279 281 277 280 276 266 259 261 260 261 263 267 267 275 276 276 276 277 279 280 281 284 288 291 291 295 297 300 302 303 305 305 306 306 309 312 312 314 316 319 323 323
265 269 271 280 278 273 270 267 260 257 260 265 266 262 270 278 279 278 278 278 279 279 281 284 287 291 292 293 294 296 298 297 299 299 301 301 305 307 309 310 313 311 313 320
267 267 278 279 281 277 271 265 275 269 260 259 264 266 273 278 276 276 277 277 277 279 281 283 286 289 290 291 292 293 295 295 295 296 299 298 299 301 304 305 307 305 305 306
271 268 271 275 280 278 272 275 266 265 260 257 261 257 264 271 272 273 274 275 276 279 280 282 285 287 288 289 290 291 292 292 293 294 295 295 295 297 297 299 300 300 300 301
273 271 269 276 268 268 271 269 267 267 271 266 264 263 274 273 273 273 274 275 276 278 279 281 284 286 287 287 288 289 290 290 290 291 292 292 292 293 294 294 295 294 295 296
277 271 267 268 276 279 275 272 273 269 265 270 270 267 277 276 275 274 274 275 276 278 279 280 282 284 284 285 286 286 287 288 288 289 289 290 291 291 291 291 292 293 292 292
278 266 262 268 273 276 272 277 276 274 275 269 267 269 278 277 275 274 273 275 276 277 277 279 280 281 282 284 284 285 285 286 287 287 287 287 287 288 288 289 290 291 291 290
282 274 266 264 266 267 269 274 275 272 264 268 270 271 275 274 273 274 274 275 275 276 276 277 278 279 280 282 283 283 284 285 285 285 285 284 285 285 286 287 287 288 289 288
274 261 269 271 271 269 271 272 273 266 269 268 272 270 275 275 274 274 275 275 275 275 275 276 276 278 279 280 281 282 283 284 285 284 284 284 284 285 285 285 286 286 286 287
276 262 265 262 273 275 271 276 274 273 269 268 269 271 278 279 277 274 274 274 274 274 275 275 277 277 278 279 279 281 281 282 283 283 282 283 284 284 283 284 284 284 284 284
269 262 257 260 268 267 266 270 271 270 269 271 266 272 277 277 277 274 274 274 274 274 275 275 275 277 277 278 279 279 280 282 281 281 282 282 282 282 282 282 283 282 282 283
262 258 256 261 263 260 271 274 272 271 273 269 269 269 273 277 279 276 276 274 274 274 274 275 275 276 277 279 279 280 280 280 280 280 280 281 281 281 281 281 281 281 282 281
274 262 256 265 267 267 271 273 272 270 270 275 273 273 274 276 279 277 277 276 275 275 276 275 276 276 277 277 279 279 279 279 279 279 280 280 281 281 281 280 280 281 281 281
273 271 261 257 258 259 271 272 274 273 267 275 275 274 275 276 272 274 276 276 276 276 276 275 274 275 275 275 278 278 277 277 277 278 279 280 280 280 279 279 280 280 281 280
252 251 256 252 257 264 272 274 274 265 270 275 275 274 274 273 275 276 276 276 275 275 274 274 273 272 271 273 276 274 273 272 275 277 278 278 279 279 279 278 278 279 279 279
263 258 255 250 254 263 273 273 271 274 275 276 274 274 274 274 275 275 274 274 273 272 272 272 271 270 269 270 272 271 269 270 273 275 275 275 276 278 278 278 277 277 277 276
263 267 264 266 268 273 274 275 276 277 275 275 275 275 274 274 272 271 272 271 270 269 269 269 269 269 267 267 267 268 266 268 270 271 271 272 273 275 276 275 275 275 275 274
266 266 266 266 268 270 274 274 276 277 276 276 276 275 274 271 270 270 268 268 266 265 265 265 266 265 264 264 264 263 264 265 265 268 269 271 272 273 273 275 274 273 272 272
267 267 265 266 268 264 269 271 275 275 273 271 269 272 273 273 272 271 269 267 266 264 263 261 262 262 262 261 261 260 262 263 266 267 267 268 270 271 276 273 273 273 271 276
268 269 269 270 273 273 273 275 273 273 272 271 271 268 267 270 272 269 267 266 265 264 263 263 263 262 261 261 261 261 261 263 265 267 267 267 267 267 273 277 278 283 283 282
Wind_Speed
5 7 0 4 5 5 7 14 22 22 19 17 18 20 20 19 14 5 7 10 13 13 14 13 12 11 11 9 12 10 9 11 5 10 10 4 5 4 3 3 3 6 11 18
8 0 4 4 6 6 9 16 19 15 4 14 18 22 26 7 5 4 6 10 14 17 17 17 17 14 10 11 10 13 13 13 9 8 9 3 3 4 4 6 9 11 11 6
2 3 6 3 8 4 5 13 7 18 22 18 12 8 4 2 3 11 15 14 14 14 18 19 18 16 13 9 8 12 10 10 9 10 11 3 2 2 3 4 6 10 17 16
6 5 5 6 6 1 11 6 17 21 12 4 6 7 2 5 6 17 19 17 17 17 18 16 19 19 14 10 7 8 9 10 7 12 9 6 6 7 5 4 4 6 11 12
7 4 5 5 6 3 12 20 19 15 5 5 7 2 4 6 11 22 23 22 20 19 17 19 20 17 15 11 6 8 8 11 9 9 9 1 4 2 3 3 5 6 7 8
7 3 3 5 12 5 10 12 6 3 1 3 4 2 3 5 12 20 22 20 21 21 19 17 18 15 12 8 7 7 12 13 8 4 2 3 2 6 4 3 3 4 5 7
9 4 3 2 7 5 9 7 6 10 7 5 3 3 7 4 15 14 19 21 21 18 17 17 17 13 7 6 5 1 2 7 4 3 2 1 2 6 5 3 4 4 4 5
5 10 3 6 2 6 5 5 4 5 5 12 7 4 6 4 13 15 15 17 17 16 15 15 16 11 9 10 10 8 6 8 4 4 4 3 5 3 3 4 4 3 1 3
2 8 5 3 2 3 8 5 4 6 2 4 5 7 5 12 19 18 18 16 19 19 16 15 14 10 10 10 10 9 7 6 5 4 3 2 2 3 2 3 3 2 5 5
3 8 3 7 2 4 5 2 6 4 7 7 7 6 6 23 25 20 20 17 16 15 15 14 12 9 9 9 8 8 8 6 5 3 2 2 8 4 2 3 3 6 6 6
4 3 9 3 1 5 6 6 3 1 3 4 7 6 4 19 18 20 17 16 16 15 14 13 11 8 9 8 9 8 7 7 6 6 6 6 7 5 4 5 6 8 9 7
4 4 7 10 4 3 4 2 3 2 6 4 5 6 5 17 14 15 15 14 14 13 14 12 10 10 10 10 8 8 7 6 6 7 5 6 7 6 6 8 10 9 9 9
4 3 5 9 5 2 2 4 1 4 3 3 6 6 8 16 14 15 15 14 14 14 15 13 12 12 10 9 8 8 7 6 6 6 5 10 9 7 9 11 11 10 8 10
3 3 8 7 8 2 6 9 3 3 2 7 5 17 15 17 20 18 17 15 14 13 13 12 12 11 11 10 10 9 8 7 7 7 10 11 8 11 12 11 12 11 10 12
4 4 2 7 11 4 7 7 6 3 5 2 12 13 15 10 16 18 13 15 15 15 15 14 13 13 12 13 11 10 9 9 8 10 12 11 12 13 13 12 13 11 13 12
1 3 1 6 6 5 5 5 6 2 3 5 6 3 10 13 7 12 15 18 17 16 15 14 14 15 15 14 12 11 11 12 11 13 14 13 12 13 13 12 12 13 13 13
2 3 4 7 5 5 6 8 5 4 4 4 1 5 6 13 12 14 13 12 12 13 13 13 13 13 13 14 14 14 13 12 14 14 13 13 12 14 13 12 14 13 12 12
5 4 3 5 6 4 7 2 3 5 5 6 4 5 6 4 8 7 11 13 13 14 15 14 13 14 16 15 15 13 13 14 15 15 14 12 12 13 12 11 12 11 11 11
4 4 2 1 2 8 3 4 6 5 7 7 4 3 5 5 7 3 9 10 11 11 11 11 12 12 12 14 13 12 14 14 14 13 12 10 8 10 10 11 10 9 10 11
4 6 5 2 3 5 5 2 2 2 6 7 5 3 2 5 3 3 9 9 10 10 10 10 10 10 12 13 11 10 12 12 13 12 10 8 8 9 9 8 8 8 10 10
2 4 5 3 4 11 6 4 4 7 7 6 6 4 3 3 3 4 5 6 6 8 10 10 10 10 11 12 10 12 12 14 12 10 9 9 9 8 7 7 7 7 8 9
9 9 6 4 2 9 8 5 7 5 2 6 5 5 5 3 3 3 3 5 7 9 10 11 8 9 10 12 9 10 12 11 9 8 9 10 9 7 7 8 7 7 7 8
4 9 7 11 10 3 8 2 4 5 5 6 6 6 7 6 4 2 2 4 5 5 6 6 6 7 8 11 11 10 9 9 8 7 6 6 6 7 8 8 7 6 7 7
5 4 4 4 5 9 7 4 4 6 6 6 6 7 7 5 5 3 2 3 2 3 4 4 6 6 6 7 7 5 7 8 6 7 8 7 7 6 6 5 4 5 4 4
5 5 6 8 8 5 8 9 6 7 4 4 2 5 8 6 4 4 3 3 2 2 3 4 5 5 7 7 7 7 8 8 7 5 5 6 5 6 7 3 3 4 1 3
9 10 8 10 8 5 7 13 10 11 10 8 8 2 3 5 7 4 3 3 2 0 1 1 2 2 4 4 5 6 7 7 6 4 4 4 3 2 2 3 4 13 13 15
Wind_Direction
10 49 319 252 195 238 268 278 288 287 283 286 280 281 288 289 284 29 346 335 336 334 326 322 314 302 276 252 249 227 229 235 254 285 277 283 258 241 225 214 109 223 241 171
17 218 251 277 269 249 255 283 292 288 274 304 293 295 290 328 95 77 352 339 339 329 327 323 317 312 301 274 234 225 226 210 223 252 270 214 230 212 222 210 192 191 224 158
280 285 316 279 299 270 266 285 281 287 313 289 289 296 99 360 82 0 1 347 335 330 325 320 315 310 303 295 256 220 217 249 208 264 262 256 265 260 186 204 212 191 198 203
250 284 319 315 289 253 312 254 297 297 321 306 52 288 311 335 346 0 351 342 334 332 327 318 314 307 300 292 283 220 209 241 226 213 258 208 225 211 228 219 210 205 192 186
259 329 2 322 274 30 256 306 304 295 241 296 328 264 278 4 346 344 340 337 334 332 329 320 316 305 293 281 252 261 176 218 246 227 202 305 243 194 243 229 201 184 193 189
253 306 234 240 298 266 321 311 353 14 104 16 262 360 350 15 336 330 333 330 329 329 330 322 313 314 285 290 284 201 200 194 187 253 33 168 329 283 223 218 217 205 186 192
328 278 296 273 314 335 8 8 340 2 4 251 284 320 241 194 358 337 323 325 326 325 326 328 326 331 337 8 5 48 171 146 84 74 297 288 223 259 306 265 214 200 200 194
31 332 14 341 95 273 339 90 119 299 317 302 355 263 278 193 352 337 328 326 321 323 330 332 333 343 1 18 24 22 34 70 35 357 311 335 221 256 273 277 294 134 65 298
6 277 300 207 301 105 306 26 216 263 184 10 284 293 312 351 335 338 341 334 331 331 333 336 335 338 358 13 23 20 11 35 46 360 323 287 346 5 304 278 289 110 86 74
208 298 253 290 356 342 136 304 356 359 330 309 292 290 266 341 346 341 340 339 332 328 338 341 335 340 357 12 16 25 13 15 26 20 334 58 55 27 350 60 41 69 67 65
129 135 288 355 353 204 349 353 343 159 263 303 303 290 293 355 340 333 335 334 332 337 339 338 334 352 1 14 16 11 22 9 27 29 25 48 55 45 49 66 65 61 60 47
194 182 276 243 262 147 146 253 255 288 300 257 258 289 335 2 337 333 333 333 335 346 346 338 349 7 11 16 7 12 21 30 29 45 40 72 71 65 71 67 62 68 71 66
159 312 332 345 5 20 47 298 29 272 279 273 318 306 358 348 348 348 343 345 348 350 353 350 2 8 10 9 11 17 22 28 46 74 84 68 62 69 65 64 67 74 84 83
187 213 177 204 218 197 316 310 341 71 43 309 278 315 334 352 352 353 351 353 354 357 359 1 6 7 8 11 16 16 19 29 45 51 58 65 62 60 60 59 65 67 70 76
115 212 280 250 263 217 239 257 303 82 242 310 313 323 343 357 352 346 350 356 1 4 4 5 8 11 13 14 15 20 24 25 37 63 64 59 56 56 57 60 63 70 67 65
72 265 78 293 321 259 266 236 267 138 279 256 288 299 336 333 348 3 351 349 359 2 2 4 13 16 15 15 15 19 24 27 37 48 52 52 55 64 55 56 60 62 65 67
93 118 55 273 342 336 325 221 213 221 191 209 349 252 315 329 349 358 354 356 354 359 1 5 9 16 16 17 16 21 23 31 40 45 47 51 52 59 60 56 60 59 63 68
126 87 87 270 358 5 243 224 205 197 220 197 269 269 277 308 322 345 3 355 358 359 3 8 10 10 13 12 17 21 29 38 42 42 41 41 53 60 58 59 64 59 60 60
138 114 45 47 268 287 319 191 187 186 279 188 207 252 274 312 312 270 11 359 355 356 360 1 2 3 4 11 5 22 32 35 39 35 36 36 46 65 71 66 62 62 68 63
89 66 118 64 157 227 241 178 146 115 291 173 182 189 258 325 3 287 344 350 350 358 1 7 7 11 14 5 10 31 35 32 27 15 17 20 43 57 60 61 64 69 71 65
43 16 169 193 233 285 230 155 145 84 242 158 167 177 175 179 232 308 344 346 354 357 6 9 18 25 14 4 11 28 29 23 359 6 13 18 19 36 44 58 47 62 72 76
172 146 203 82 69 284 157 84 179 205 102 146 164 172 162 183 232 272 329 356 2 6 14 15 26 30 19 14 15 35 31 351 350 9 26 24 20 27 33 50 46 47 56 65
283 189 182 184 212 252 208 173 191 167 153 185 171 185 167 172 216 300 305 345 4 9 6 5 9 12 15 10 19 26 355 346 352 15 24 26 26 34 36 43 39 49 46 52
246 164 212 57 260 221 225 229 213 186 194 175 178 171 164 181 185 220 273 320 349 343 341 351 8 14 12 6 20 9 344 338 349 18 15 9 21 23 39 57 59 73 67 63
195 122 186 267 270 324 249 229 184 175 167 146 111 161 180 175 205 193 196 213 225 269 341 21 5 1 349 342 354 352 352 350 2 18 21 23 21 16 41 40 74 69 59 111
186 190 176 224 218 181 223 196 167 166 186 186 154 172 229 178 182 169 221 202 170 81 25 337 337 328 314 335 348 352 351 354 3 24 18 11 17 8 41 65 51 79 78 68